• Em Portugal
  • Lista de países
  • Para 7 dias
  • Temperatura da água
  • Mapas de satélite
  • Mapa do tempo
  • Widgets de tempo
  • user-avatar
    Iniciar Sessão

    Previsão horária em Darna

    Hoje, 23 Outubro, Terça-feira

    Tempo Temperatura Precipitação Vento Pressão Humidade
    00:00 +24°C° 0.4 mm 6 m/s 755 mmHg 71%
    01:00 +24°C° 0.4 mm 6 m/s 755 mmHg 73%
    02:00 +23°C° 0.4 mm 6 m/s 755 mmHg 76%
    03:00 +23°C° 1 mm 5 m/s 754 mmHg 76%
    04:00 +23°C° 1 mm 5 m/s 754 mmHg 77%
    05:00 +22°C° 1 mm 5 m/s 754 mmHg 78%
    06:00 +23°C° 0.6 mm 4 m/s 754 mmHg 76%
    07:00 +23°C° 0.6 mm 4 m/s 754 mmHg 74%
    08:00 +23°C° 0.6 mm 4 m/s 754 mmHg 72%
    09:00 +25°C° 0.3 mm 4 m/s 754 mmHg 66%
    10:00 +26°C° 0.3 mm 3 m/s 754 mmHg 59%
    11:00 +27°C° 0.3 mm 3 m/s 754 mmHg 52%
    12:00 +28°C° 0 mm 3 m/s 754 mmHg 49%
    13:00 +28°C° 0 mm 3 m/s 753 mmHg 46%
    14:00 +29°C° 0 mm 3 m/s 753 mmHg 43%
    15:00 +28°C° 0.2 mm 4 m/s 753 mmHg 45%
    16:00 +28°C° 0.2 mm 5 m/s 753 mmHg 48%
    17:00 +27°C° 0.2 mm 6 m/s 753 mmHg 51%
    18:00 +26°C° 0.5 mm 5 m/s 753 mmHg 56%
    19:00 +25°C° 0.5 mm 5 m/s 753 mmHg 61%
    20:00 +23°C° 0.5 mm 5 m/s 753 mmHg 66%
    21:00 +23°C° 0.6 mm 4 m/s 753 mmHg 67%
    22:00 +24°C° 0.6 mm 2 m/s 753 mmHg 67%
    23:00 +23°C° 0.6 mm 1 m/s 753 mmHg 68%

    Amanhã, 24 Outubro, Quarta-feira

    Tempo Temperatura Precipitação Vento Pressão Humidade
    00:00 +23°C° 0.7 mm 2 m/s 753 mmHg 68%
    01:00 +23°C° 0.7 mm 2 m/s 752 mmHg 68%
    02:00 +23°C° 0.7 mm 2 m/s 752 mmHg 69%
    03:00 +23°C° 0.5 mm 2 m/s 752 mmHg 69%
    04:00 +22°C° 0.5 mm 3 m/s 751 mmHg 70%
    05:00 +21°C° 0.5 mm 3 m/s 751 mmHg 71%
    06:00 +21°C° 0.1 mm 3 m/s 751 mmHg 69%
    07:00 +21°C° 0.1 mm 3 m/s 751 mmHg 68%
    08:00 +21°C° 0.1 mm 3 m/s 751 mmHg 66%
    09:00 +22°C° 0 mm 3 m/s 752 mmHg 61%
    10:00 +24°C° 0 mm 3 m/s 752 mmHg 56%
    11:00 +25°C° 0 mm 3 m/s 752 mmHg 50%
    12:00 +25°C° 0.6 mm 3 m/s 752 mmHg 51%
    13:00 +25°C° 0.6 mm 3 m/s 751 mmHg 52%
    14:00 +25°C° 0.6 mm 3 m/s 751 mmHg 53%
    15:00 +25°C° 0.4 mm 4 m/s 751 mmHg 56%
    16:00 +23°C° 0.4 mm 4 m/s 751 mmHg 59%
    17:00 +23°C° 0.4 mm 5 m/s 751 mmHg 62%
    18:00 +23°C° 0 mm 5 m/s 751 mmHg 64%
    19:00 +22°C° 0 mm 5 m/s 751 mmHg 66%
    20:00 +22°C° 0 mm 6 m/s 752 mmHg 68%
    21:00 +22°C° 0 mm 6 m/s 752 mmHg 70%
    22:00 +22°C° 0 mm 6 m/s 752 mmHg 72%
    23:00 +22°C° 0 mm 6 m/s 753 mmHg 75%

    Depois de amanhã, 25 Outubro, Quinta-feira

    Tempo Temperatura Precipitação Vento Pressão Humidade
    00:00 +21°C° 0.1 mm 7 m/s 753 mmHg 76%
    01:00 +21°C° 0.1 mm 7 m/s 753 mmHg 78%
    02:00 +21°C° 0.1 mm 7 m/s 753 mmHg 80%
    03:00 +21°C° 0.1 mm 8 m/s 753 mmHg 80%
    04:00 +21°C° 0.1 mm 8 m/s 753 mmHg 80%
    05:00 +21°C° 0.1 mm 8 m/s 753 mmHg 80%
    06:00 +21°C° 0.1 mm 8 m/s 753 mmHg 78%
    07:00 +21°C° 0.1 mm 8 m/s 753 mmHg 76%
    08:00 +21°C° 0.1 mm 8 m/s 753 mmHg 75%
    09:00 +22°C° 0 mm 9 m/s 754 mmHg 68%
    10:00 +23°C° 0 mm 9 m/s 754 mmHg 62%
    11:00 +24°C° 0 mm 9 m/s 755 mmHg 56%
    12:00 +26°C° 0 mm 9 m/s 754 mmHg 56%
    13:00 +26°C° 0 mm 8 m/s 754 mmHg 56%
    14:00 +26°C° 0 mm 8 m/s 754 mmHg 56%
    15:00 +24°C° 0 mm 7 m/s 754 mmHg 59%
    16:00 +24°C° 0 mm 7 m/s 754 mmHg 62%
    17:00 +23°C° 0 mm 6 m/s 754 mmHg 64%
    18:00 +23°C° 0 mm 5 m/s 755 mmHg 66%
    19:00 +22°C° 0 mm 4 m/s 756 mmHg 68%
    20:00 +22°C° 0 mm 3 m/s 756 mmHg 70%
    21:00 +22°C° 0 mm 3 m/s 756 mmHg 71%
    22:00 +22°C° 0 mm 3 m/s 757 mmHg 72%
    23:00 +21°C° 0 mm 2 m/s 757 mmHg 72%

    26 Outubro, Sexta-feira

    Tempo Temperatura Precipitação Vento Pressão Humidade
    00:00 +21°C° 0.1 mm 2 m/s 757 mmHg 74%
    01:00 +21°C° 0.1 mm 2 m/s 757 mmHg 76%
    02:00 +21°C° 0.1 mm 2 m/s 757 mmHg 77%
    03:00 +20°C° 0.2 mm 2 m/s 758 mmHg 79%
    04:00 +20°C° 0.2 mm 3 m/s 758 mmHg 80%
    05:00 +20°C° 0.2 mm 3 m/s 758 mmHg 82%
    06:00 +20°C° 0.3 mm 3 m/s 758 mmHg 81%
    07:00 +20°C° 0.3 mm 3 m/s 759 mmHg 81%
    08:00 +21°C° 0.3 mm 3 m/s 759 mmHg 80%
    09:00 +21°C° 0.3 mm 3 m/s 759 mmHg 77%
    10:00 +22°C° 0.3 mm 3 m/s 760 mmHg 73%
    11:00 +22°C° 0.3 mm 3 m/s 760 mmHg 70%
    12:00 +22°C° 0.1 mm 3 m/s 760 mmHg 68%
    13:00 +24°C° 0.1 mm 3 m/s 759 mmHg 66%
    14:00 +24°C° 0.1 mm 3 m/s 759 mmHg 64%
    15:00 +24°C° 0 mm 3 m/s 759 mmHg 64%
    16:00 +24°C° 0 mm 3 m/s 759 mmHg 64%
    17:00 +24°C° 0 mm 3 m/s 759 mmHg 64%
    18:00 +22°C° 0 mm 3 m/s 760 mmHg 67%
    19:00 +22°C° 0 mm 3 m/s 760 mmHg 69%
    20:00 +21°C° 0 mm 3 m/s 760 mmHg 72%
    21:00 +21°C° 0 mm 2 m/s 761 mmHg 73%
    22:00 +21°C° 0 mm 2 m/s 761 mmHg 75%
    23:00 +21°C° 0 mm 2 m/s 761 mmHg 76%

    27 Outubro, Sábado

    Tempo Temperatura Precipitação Vento Pressão Humidade
    00:00 +20°C° 0 mm 2 m/s 761 mmHg 77%
    01:00 +21°C° 0 mm 1 m/s 761 mmHg 78%
    02:00 +21°C° 0 mm 1 m/s 761 mmHg 79%
    03:00 +21°C° 0 mm 1 m/s 761 mmHg 80%
    04:00 +21°C° 0 mm 1 m/s 761 mmHg 81%
    05:00 +20°C° 0 mm 1 m/s 761 mmHg 81%
    06:00 +20°C° 0 mm 2 m/s 761 mmHg 80%
    07:00 +20°C° 0 mm 2 m/s 761 mmHg 79%
    08:00 +20°C° 0 mm 2 m/s 761 mmHg 77%
    09:00 +21°C° 0 mm 2 m/s 761 mmHg 71%
    10:00 +22°C° 0 mm 3 m/s 762 mmHg 64%
    11:00 +24°C° 0 mm 3 m/s 762 mmHg 58%
    12:00 +25°C° 0 mm 3 m/s 761 mmHg 54%
    13:00 +25°C° 0 mm 3 m/s 761 mmHg 50%
    14:00 +26°C° 0 mm 3 m/s 760 mmHg 46%
    15:00 +26°C° 0 mm 3 m/s 760 mmHg 46%
    16:00 +26°C° 0 mm 4 m/s 760 mmHg 46%
    17:00 +26°C° 0 mm 4 m/s 760 mmHg 46%
    18:00 +25°C° 0 mm 4 m/s 760 mmHg 51%
    19:00 +23°C° 0 mm 4 m/s 760 mmHg 56%
    20:00 +23°C° 0 mm 5 m/s 760 mmHg 61%
    21:00 +22°C° 0 mm 5 m/s 760 mmHg 64%
    22:00 +22°C° 0 mm 5 m/s 760 mmHg 67%
    23:00 +21°C° 0 mm 5 m/s 760 mmHg 70%

    28 Outubro, Domingo

    Tempo Temperatura Precipitação Vento Pressão Humidade
    00:00 +21°C° 0 mm 5 m/s 760 mmHg 69%
    01:00 +21°C° 0 mm 4 m/s 760 mmHg 67%
    02:00 +21°C° 0 mm 4 m/s 759 mmHg 66%
    03:00 +20°C° 0 mm 4 m/s 759 mmHg 63%
    04:00 +20°C° 0 mm 4 m/s 759 mmHg 61%
    05:00 +20°C° 0 mm 4 m/s 759 mmHg 58%
    06:00 +20°C° 0 mm 4 m/s 759 mmHg 58%
    07:00 +20°C° 0 mm 4 m/s 760 mmHg 57%
    08:00 +20°C° 0 mm 4 m/s 760 mmHg 57%
    09:00 +22°C° 0 mm 5 m/s 760 mmHg 53%
    10:00 +23°C° 0 mm 5 m/s 760 mmHg 49%
    11:00 +25°C° 0 mm 5 m/s 760 mmHg 45%
    12:00 +26°C° 0 mm 5 m/s 759 mmHg 43%
    13:00 +27°C° 0 mm 5 m/s 759 mmHg 40%
    14:00 +27°C° 0 mm 4 m/s 758 mmHg 38%
    15:00 +27°C° 0 mm 5 m/s 758 mmHg 39%
    16:00 +27°C° 0 mm 5 m/s 758 mmHg 39%
    17:00 +27°C° 0 mm 6 m/s 758 mmHg 40%
    18:00 +26°C° 0 mm 6 m/s 758 mmHg 45%
    19:00 +24°C° 0 mm 6 m/s 758 mmHg 51%
    20:00 +23°C° 0 mm 6 m/s 758 mmHg 56%
    21:00 +23°C° 0 mm 6 m/s 758 mmHg 59%
    22:00 +22°C° 0 mm 7 m/s 758 mmHg 62%
    23:00 +22°C° 0 mm 7 m/s 758 mmHg 65%
    Mostrar mais